Hannover, Germany

10:40 PM CET on November 17, 2018 (GMT +0100)
Hannover

Weather History for EDDV - November, 2018

Change the Weather History Date:

Friday, November 9, 2018

  Actual Average Record
Temperature  
Mean Temperature 50 °F -  
Max Temperature 57 °F 44 °F 60 °F (2015)
Min Temperature 42 °F 34 °F 26 °F (2001)
Degree Days  
Heating Degree Days 16    
Moisture  
Dew Point 47 °F    
Average Humidity 89    
Maximum Humidity 100    
Minimum Humidity 72    
Precipitation  
Precipitation 0.00 in 0.07 in - ()
Sea Level Pressure  
Sea Level Pressure 29.97 in    
Wind  
Wind Speed 6 mph ()    
Max Wind Speed 13 mph    
Max Gust Speed -    
Visibility 5.9 miles    
Events Rain    
Averages and records for this station are not official NWS values.
T = Trace of Precipitation, MM = Missing Value Source: Averaged Metar Reports

Daily Weather History Graph

Daily Weather History Graph

Search for Another Location

Airport or City:

Astronomy

Nov. 09, 2018 Rise Set
Actual Time 7:31 AM CET 4:37 PM CET
Civil Twilight 6:54 AM CET 5:14 PM CET
Nautical Twilight 6:13 AM CET 5:55 PM CET
Astronomical Twilight 5:33 AM CET 6:35 PM CET
Moon 9:09 AM CET (11/9) 6:04 PM CET (11/9)
Length of Visible Light 10h 20m
Length of Day
9h 05m
Waxing Crescent, 4% of the Moon is Illuminated
Nov 9
Waxing Crescent
Nov 15
First Quarter
Nov 23
Full
Nov 30
Last Quarter
Dec 7
New

Hourly Weather History & Observations

Time (CET) Temp. Windchill Dew Point Humidity Pressure Visibility Wind Dir Wind Speed Gust Speed Precip Events Conditions
12:20 AM 42.8 °F 40.1 °F 42.8 °F 100% 30.12 in 6.2 mi East 4.6 mph - N/A   Mostly Cloudy
12:50 AM 42.8 °F 39.3 °F 41.0 °F 93% 30.12 in 6.2 mi East 5.8 mph - N/A   Mostly Cloudy
1:20 AM 42.8 °F 40.1 °F 41.0 °F 93% 30.12 in 6.2 mi East 4.6 mph - N/A   Mostly Cloudy
1:50 AM 42.8 °F 40.1 °F 42.8 °F 100% 30.09 in - East 4.6 mph - N/A   Unknown
2:20 AM 42.8 °F 38.6 °F 42.8 °F 100% 30.09 in - East 6.9 mph - N/A   Clear
2:50 AM 44.6 °F 41.4 °F 42.8 °F 93% 30.09 in - East 5.8 mph - N/A   Clear
3:20 AM 44.6 °F 40.2 °F 42.8 °F 93% 30.06 in 6.2 mi East 8.1 mph - N/A   Mostly Cloudy
3:50 AM 44.6 °F 40.7 °F 44.6 °F 100% 30.06 in 6.2 mi East 6.9 mph - N/A Rain Light Rain
4:20 AM 44.6 °F 40.7 °F 44.6 °F 100% 30.06 in 6.2 mi East 6.9 mph - N/A Rain Light Rain
4:50 AM 46.4 °F 42.4 °F 44.6 °F 93% 30.04 in 5.6 mi East 8.1 mph - N/A Rain Light Rain
5:20 AM 46.4 °F 43.5 °F 46.4 °F 100% 30.04 in 5.6 mi East 5.8 mph - N/A Rain Light Rain
5:50 AM 46.4 °F 42.9 °F 46.4 °F 100% 30.04 in 5.6 mi East 6.9 mph - N/A Rain Light Rain
6:20 AM 48.2 °F - 46.4 °F 93% 30.04 in 5.6 mi East 6.9 mph - N/A Rain Light Rain
6:50 AM 48.2 °F - 46.4 °F 93% 30.04 in 5.0 mi East 5.8 mph - N/A Rain Light Rain
7:20 AM 48.2 °F - 46.4 °F 93% 30.04 in 5.0 mi East 8.1 mph - N/A Rain Light Rain
7:50 AM 48.2 °F - 48.2 °F 100% 30.04 in 6.2 mi ESE 6.9 mph - N/A Rain Light Rain
8:20 AM 50.0 °F - 48.2 °F 94% 30.01 in 6.2 mi ESE 9.2 mph - N/A Rain Light Rain
8:50 AM 50.0 °F - 48.2 °F 94% 30.04 in 6.2 mi SE 5.8 mph - N/A Rain Light Rain
9:20 AM 50.0 °F - 48.2 °F 94% 30.01 in 6.2 mi ESE 8.1 mph - N/A   Partly Cloudy
9:50 AM 51.8 °F - 48.2 °F 88% 30.01 in 6.2 mi East 6.9 mph - N/A   Partly Cloudy
10:20 AM 51.8 °F - 48.2 °F 88% 30.01 in 6.2 mi ESE 5.8 mph - N/A   Partly Cloudy
10:50 AM 53.6 °F - 48.2 °F 82% 30.01 in 6.2 mi SE 6.9 mph - N/A   Partly Cloudy
11:20 AM 53.6 °F - 48.2 °F 82% 29.98 in 6.2 mi SE 6.9 mph - N/A   Partly Cloudy
11:50 AM 53.6 °F - 48.2 °F 82% 29.98 in 6.2 mi SSE 8.1 mph - N/A   Partly Cloudy
12:20 PM 55.4 °F - 48.2 °F 77% 29.98 in 6.2 mi SSE 12.7 mph - N/A   Partly Cloudy
12:50 PM 55.4 °F - 48.2 °F 77% 29.95 in 6.2 mi Variable 5.8 mph - N/A   Partly Cloudy
1:20 PM 55.4 °F - 48.2 °F 77% 29.95 in 6.2 mi SSE 5.8 mph - N/A   Partly Cloudy
1:50 PM 55.4 °F - 48.2 °F 77% 29.95 in 6.2 mi SSE 8.1 mph - N/A   Partly Cloudy
2:20 PM 57.2 °F - 48.2 °F 72% 29.92 in 6.2 mi SSE 6.9 mph - N/A   Partly Cloudy
2:50 PM 55.4 °F - 48.2 °F 77% 29.92 in 6.2 mi SE 5.8 mph - N/A   Partly Cloudy
3:20 PM 55.4 °F - 48.2 °F 77% 29.92 in - SSE 8.1 mph - N/A   Clear
3:50 PM 53.6 °F - 48.2 °F 82% 29.92 in - SSE 6.9 mph - N/A   Clear
4:20 PM 53.6 °F - 48.2 °F 82% 29.92 in - SE 4.6 mph - N/A   Clear
4:50 PM 53.6 °F - 48.2 °F 82% 29.89 in - SE 4.6 mph - N/A   Clear
5:20 PM 51.8 °F - 48.2 °F 88% 29.89 in - ESE 4.6 mph - N/A   Clear
5:50 PM 51.8 °F - 48.2 °F 88% 29.89 in - SE 4.6 mph - N/A   Clear
6:20 PM 50.0 °F - 48.2 °F 94% 29.89 in - SE 3.5 mph - N/A   Clear
6:50 PM 50.0 °F - 48.2 °F 94% 29.89 in 5.6 mi ESE 5.8 mph - N/A   Unknown
7:20 PM 48.2 °F - 46.4 °F 93% 29.89 in 5.0 mi ESE 4.6 mph - N/A   Unknown
7:50 PM 50.0 °F - 46.4 °F 87% 29.89 in 5.0 mi SE 3.5 mph - N/A   Unknown
8:20 PM 50.0 °F - 46.4 °F 87% 29.89 in 5.0 mi Variable 3.5 mph - N/A   Unknown
8:50 PM 50.0 °F - 46.4 °F 87% 29.86 in 5.0 mi SE 5.8 mph - N/A   Unknown
9:20 PM 50.0 °F - 46.4 °F 87% 29.86 in 5.0 mi SE 4.6 mph - N/A   Unknown
9:50 PM 51.8 °F - 46.4 °F 82% 29.86 in - SE 3.5 mph - N/A   Clear
10:20 PM 50.0 °F - 46.4 °F 87% 29.86 in - SSE 4.6 mph - N/A   Clear
10:50 PM 51.8 °F - 46.4 °F 82% 29.86 in 6.2 mi SE 5.8 mph - N/A   Partly Cloudy
11:20 PM 50.0 °F - 46.4 °F 87% 29.83 in 6.2 mi SSE 4.6 mph - N/A   Partly Cloudy
11:50 PM 50.0 °F - 46.4 °F 87% 29.83 in - SSE 5.8 mph - N/A   Clear